Zurück zum Katalog

ARIANE 2 DEB

LostHEO
NORAD 33582·DEBRIS·🇫🇷 France

Gestartet Jan 27, 1989 von Guiana Space Centre

Loading…

Nächste Überflüge (nächste 24 Stunden)

TLE

VeraltetSource: Space-Track

Epoche: Jul 5, 2025, 01:38 UTC

1 33582U 89006CA  25186.06835003 -.00000420  00000-0  00000-0 0  9998
2 33582   8.3998 346.1614 5956790 343.0063   3.3561  2.03014303137752

Verfolge ARIANE 2 DEB in Echtzeit mit AllMySat

Download on the App Store